[[{"header":{"parameterUnit":"m.s-1","parameterCategory":1,"la1":30.2992,"la2":30.254,"lo1":-89.0895,"lo2":-89.0443,"dy":0.0025,"dx":0.0025,"nx":19,"ny":19,"refTime":"2026-04-09T21:00:00:Z","depth":0,"parameterNumber":2,"parameterNumberName":"U-component_of_WINDS"},"data":[0,0,0,-6.8223,-6.8225,-6.832,-6.832,-6.8481,-6.8483,0,0,0,0,0,0,0,0,0,0,0,-6.8217,-6.8219,-6.8223,-6.8226,-6.832,-6.832,-6.8481,-6.8483,0,0,0,0,0,0,0,0,0,0,0,-6.8216,-6.8219,-6.8221,-6.8226,-6.832,-6.832,-6.848,-6.8395,0,0,0,0,0,0,0,0,0,0,-6.8296,-6.8312,-6.8218,-6.8221,-6.8227,-6.832,-6.832,-6.839,-6.84,-6.8454,0,-6.8507,0,-6.8498,-6.8496,-6.8496,0,0,0,-6.8209,-6.8304,-6.831,-6.8221,-6.8228,-6.832,-6.8273,-6.8395,-6.8407,-6.8468,-6.8509,-6.8514,-6.8501,-6.8497,-6.8498,-6.8865,-6.8867,0,0,-6.8204,-6.8246,-6.8302,-6.8318,-6.8305,-6.827,-6.8276,-6.8402,-6.845,-6.851,-6.8517,-6.8503,-6.8498,-6.85,-6.8862,-6.8866,0,0,0,-6.82,-6.8244,-6.8245,-6.8313,-6.8327,-6.8273,-6.828,-6.8444,-6.8441,-6.8519,-6.8505,-6.8499,-6.8502,-6.886,-6.8864,-6.9029,0,0,0,-6.8196,-6.8241,-6.8243,-6.827,-6.8325,-6.8386,-6.8321,-6.8432,-6.8445,-6.8504,-6.85,-6.8504,-6.8857,-6.8862,-6.9018,-6.91,0,0,0,-6.8203,-6.8241,-6.8263,-6.8273,-6.8315,-6.8383,-6.8387,-6.8434,-6.8438,-6.8497,-6.8504,-6.8855,-6.8861,-6.9009,-6.9084,-6.9211,0,0,0,-6.8223,-6.8407,-6.8266,-6.8467,-6.8314,-6.8485,-6.8385,-6.851,-6.858,-6.8501,-6.8857,-6.8863,-6.9006,-6.9075,-6.9201,-6.9326,-6.9381,0,0,-6.8479,-6.844,-6.8554,-6.8431,-6.8637,-6.8467,-6.8698,-6.8721,-6.8688,-6.8808,-6.8817,-6.9022,-6.9083,-6.9209,-6.9675,-6.972,0,0,0,-6.865,-6.8733,-6.8778,-6.8847,-6.887,-6.8898,-6.8881,-6.8891,-6.8991,-6.8758,-6.9099,-6.9135,-6.9207,-6.9264,-6.9302,-6.9362,-6.8891,-6.8891,-6.889,-6.9072,-6.9021,-6.9208,-6.9169,-6.9238,-6.9221,-6.9272,-6.9282,-6.9208,-6.9291,-6.9326,-6.9615,-6.9684,-6.9712,-6.9776,-6.9387,-6.9387,-6.9388,-6.9388,-6.9444,-6.9554,-6.9455,-6.9601,-6.9546,-6.9668,-6.9661,-6.9606,-6.9713,-6.9583,-6.9644,-6.9508,-6.9763,-6.9815,-6.94,-6.9398,-6.9397,-6.9396,-6.9395,-6.9716,-6.976,-6.9768,-6.9865,-6.9946,-6.99,-7.0009,-6.9954,-6.9904,-6.9964,-6.9997,-6.9995,-6.9986,-6.9984,-6.9985,-6.9986,-6.9987,-6.9987,-6.9988,-6.9995,-6.9999,-7.0097,-7.0139,-7.0178,-7.0223,-7.021,-7.0247,-7.0275,-7.0227,-7.0227,-7.0148,-6.9797,-6.971,-7.0003,-7.0001,-6.9999,-6.9997,-6.9996,-7.0392,-7.0294,-7.0445,-7.0485,-7.0531,-7.0617,-7.0547,-7.0629,-7.0651,-7.0708,-7.0616,-7.0365,-7.032,-7.029,-7.0218,-7.0625,-7.0625,-7.0625,-7.0625,-7.0622,-7.0595,-7.0738,-7.0806,-7.0865,-7.0818,-7.0994,-7.0988,-7.0965,-7.0977,-7.091,-7.0811,-7.0782,-7.0755,-7.0714,-7.0646,-7.1153,-7.1153,-7.1154,-7.0865,-7.0841,-7.1,-7.0976,-7.101,-7.1041,-7.1206,-7.1289,-7.1243,-7.1174,-7.0986,-7.0964,-7.0802,-7.0751,-7.0678,-7.0617,-7.0491,0,0]},{"header":{"parameterUnit":"m.s-1","parameterCategory":1,"la1":30.2992,"la2":30.254,"lo1":-89.0895,"lo2":-89.0443,"dy":0.0025,"dx":0.0025,"nx":19,"ny":19,"refTime":"2026-04-09T21:00:00:Z","depth":0,"parameterNumber":3,"parameterNumberName":"V-component_of_WINDS"},"data":[0,0,0,1.9058,1.9057,1.9021,1.9021,1.8954,1.8953,0,0,0,0,0,0,0,0,0,0,0,1.906,1.9059,1.9058,1.9057,1.9021,1.9021,1.8954,1.8953,0,0,0,0,0,0,0,0,0,0,0,1.906,1.9059,1.9058,1.9057,1.9021,1.9021,1.8954,1.8988,0,0,0,0,0,0,0,0,0,0,1.9027,1.902,1.9059,1.9058,1.9057,1.9021,1.9021,1.899,1.8986,1.8963,0,1.8942,0,1.8947,1.8948,1.8948,0,0,0,1.9063,1.9023,1.9022,1.9058,1.9057,1.9021,1.9039,1.8988,1.8983,1.8957,1.8942,1.894,1.8946,1.8947,1.8947,1.88,1.8799,0,0,1.9065,1.9047,1.9025,1.9019,1.9027,1.904,1.9038,1.8986,1.8966,1.8942,1.8938,1.8945,1.8947,1.8946,1.8801,1.88,0,0,0,1.9067,1.9048,1.9049,1.9021,1.9016,1.9039,1.9036,1.8968,1.897,1.8938,1.8944,1.8946,1.8945,1.8802,1.8801,1.8735,0,0,0,1.9068,1.9049,1.905,1.9038,1.9017,1.8992,1.902,1.8974,1.8969,1.8944,1.8946,1.8945,1.8803,1.8802,1.8739,1.8705,0,0,0,1.9065,1.9049,1.9041,1.9037,1.9022,1.8994,1.8993,1.8973,1.8972,1.8948,1.8944,1.8804,1.8802,1.8743,1.8711,1.866,0,0,0,1.9055,1.8982,1.904,1.8961,1.9022,1.8956,1.8994,1.8945,1.8916,1.8946,1.8803,1.8801,1.8744,1.8715,1.8664,1.861,1.8588,0,0,1.8952,1.8969,1.8924,1.8975,1.8894,1.8963,1.8871,1.886,1.8873,1.8823,1.882,1.8738,1.8712,1.866,1.8474,1.8456,0,0,0,1.8885,1.8852,1.8835,1.8809,1.8802,1.8791,1.8798,1.8794,1.8753,1.8845,1.8708,1.8693,1.8663,1.8638,1.8623,1.8597,1.879,1.879,1.8791,1.8709,1.8734,1.866,1.8679,1.8653,1.8662,1.8642,1.8638,1.8667,1.8635,1.8618,1.8503,1.8473,1.8461,1.8434,1.8596,1.8595,1.8595,1.8595,1.8558,1.8513,1.8558,1.8502,1.8527,1.8479,1.8485,1.8508,1.8464,1.8517,1.8492,1.8543,1.8441,1.8418,1.859,1.8591,1.8592,1.8592,1.8592,1.8442,1.8424,1.8425,1.839,1.836,1.8383,1.834,1.8365,1.8387,1.8363,1.8346,1.8347,1.8348,1.8354,1.8354,1.8354,1.8353,1.8353,1.8353,1.8319,1.8322,1.8285,1.8273,1.826,1.8246,1.8256,1.8242,1.8233,1.8253,1.8253,1.8283,1.8429,1.8463,1.8346,1.8347,1.8348,1.8349,1.8349,1.8148,1.8192,1.8134,1.8121,1.811,1.8077,1.8112,1.8083,1.8075,1.8053,1.8091,1.8196,1.8212,1.8225,1.8252,1.8088,1.8088,1.8088,1.8088,1.8047,1.8061,1.8007,1.7985,1.7966,1.7992,1.7922,1.793,1.7943,1.794,1.7968,1.8009,1.8021,1.803,1.8046,1.8072,1.7866,1.7866,1.7866,1.7942,1.7955,1.7892,1.791,1.7904,1.7897,1.7831,1.7801,1.7826,1.7857,1.7936,1.7946,1.8011,1.8032,1.8059,1.8085,1.8133,0,0]}]]